FW7740 Weather Reports


Display with metric or nautical units.
time (UTC)temp
F
wind
direction
speed
MPH
gust
MPH
rain 1hr
in
rain 24hr
in
rain mn
in
humidity
%
barometer
mb
20260503013130 50 314 0.0 0.0 0.00 0.00 0.00 68 1020.8
20260503012627 51 314 0.0 0.0 0.00 0.00 0.00 65 1020.4
20260503012124 52 314 0.0 0.0 0.00 0.00 0.00 63 1020.4
20260503011620 52 314 0.0 0.0 0.00 0.00 0.00 63 1020.8
20260503011118 52 314 0.0 0.0 0.00 0.00 0.00 61 1020.8
20260503010614 53 314 0.0 0.0 0.00 0.00 0.00 59 1020.4
20260503010111 53 315 0.0 0.0 0.00 0.00 0.00 56 1020.4
20260503005608 54 314 0.0 0.0 0.00 0.00 0.00 56 1020.4
20260503005106 55 314 0.0 0.0 0.00 0.00 0.00 55 1020.4
20260503004601 55 314 0.0 0.0 0.00 0.00 0.00 55 1020.4
20260503004100 57 314 0.0 0.0 0.00 0.00 0.00 52 1020.4
20260503003556 57 315 0.0 0.0 0.00 0.00 0.00 50 1020.4
20260503003053 57 315 0.0 0.0 0.00 0.00 0.00 48 1020.1
20260503002550 57 314 0.0 0.0 0.00 0.00 0.00 44 1020.4
20260503002047 58 314 0.0 0.0 0.00 0.00 0.00 40 1020.4
20260503001543 58 314 0.0 0.0 0.00 0.00 0.00 40 1020.4
20260503001041 58 325 0.0 0.0 0.00 0.00 0.00 41 1020.8
20260503000538 59 321 0.0 0.0 0.00 0.00 0.00 39 1020.1
20260503000035 59 321 0.0 0.0 0.00 0.00 0.00 39 1020.4
20260502235531 60 331 0.0 0.0 0.00 0.00 0.00 39 1020.1
20260502235030 60 330 0.0 1.0 0.00 0.00 0.00 38 1020.4
20260502234525 61 341 0.0 1.0 0.00 0.00 0.00 34 1020.4
20260502234023 61 341 0.0 1.0 0.00 0.00 0.00 34 1020.1
20260502233518 61 340 2.0 2.0 0.00 0.00 0.00 35 1020.4
20260502233016 61 317 1.0 2.0 0.00 0.00 0.00 37 1020.4
20260502232512 61 343 0.0 0.0 0.00 0.00 0.00 34 1020.4
20260502232009 61 335 1.0 1.0 0.00 0.00 0.00 34 1020.4
20260502231506 61 47 1.0 1.0 0.00 0.00 0.00 33 1020.4
20260502231004 61 343 2.0 3.0 0.00 0.00 0.00 35 1020.4
20260502230502 62 357 1.0 1.0 0.00 0.00 0.00 33 1020.4
20260502230000 62 357 1.0 1.0 0.00 0.00 0.00 33 1020.4
20260502225455 62 333 2.0 2.0 0.00 0.00 0.00 33 1020.8
20260502224952 62 317 1.0 1.0 0.00 0.00 0.00 36 1020.1
20260502224448 62 35 1.0 2.0 0.00 0.00 0.00 32 1020.4
20260502223945 62 10 4.0 5.0 0.00 0.00 0.00 33 1020.4
20260502223443 63 332 1.0 2.0 0.00 0.00 0.00 32 1020.4
20260502222941 63 0 4.0 5.0 0.00 0.00 0.00 32 1020.1
20260502222439 63 353 3.0 3.0 0.00 0.00 0.00 33 1020.4
20260502221934 63 241 3.0 3.0 0.00 0.00 0.00 32 1020.8
20260502221431 64 47 3.0 3.0 0.00 0.00 0.00 32 1020.4
20260502220928 64 311 2.0 2.0 0.00 0.00 0.00 33 1020.4
20260502220423 64 335 0.0 1.0 0.00 0.00 0.00 31 1020.4
20260502215920 64 12 3.0 3.0 0.00 0.00 0.00 31 1020.4
20260502215418 64 345 1.0 1.0 0.00 0.00 0.00 30 1020.4
20260502214914 64 355 5.0 8.0 0.00 0.00 0.00 30 1020.4
20260502214411 65 352 2.0 3.0 0.00 0.00 0.00 32 1020.8
20260502213908 65 352 2.0 3.0 0.00 0.00 0.00 32 1020.4
20260502213405 64 322 1.0 1.0 0.00 0.00 0.00 31 1020.8
20260502212904 65 14 2.0 2.0 0.00 0.00 0.00 31 1020.4
20260502212402 65 335 2.0 2.0 0.00 0.00 0.00 32 1020.4
20260502211859 65 337 2.0 2.0 0.00 0.00 0.00 32 1020.4
20260502211359 65 336 2.0 3.0 0.00 0.00 0.00 31 1020.8
20260502210857 66 333 4.0 3.0 0.00 0.00 0.00 29 1020.8
20260502210354 65 331 1.0 1.0 0.00 0.00 0.00 29 1020.8
20260502205851 65 0 2.0 3.0 0.00 0.00 0.00 30 1020.8
20260502205347 65 343 3.0 2.0 0.00 0.00 0.00 30 1020.8
20260502204845 66 42 5.0 5.0 0.00 0.00 0.00 29 1020.8
20260502204342 65 13 3.0 5.0 0.00 0.00 0.00 30 1020.8
20260502203839 64 340 3.0 2.0 0.00 0.00 0.00 31 1020.8
20260502203337 64 344 1.0 1.0 0.00 0.00 0.00 32 1020.8
20260502202832 63 343 3.0 5.0 0.00 0.00 0.00 31 1020.8
20260502202330 62 334 2.0 3.0 0.00 0.00 0.00 34 1020.8
20260502201828 62 334 2.0 3.0 0.00 0.00 0.00 35 1021.1
20260502201324 62 341 1.0 2.0 0.00 0.00 0.00 35 1021.1
20260502200820 63 295 1.0 1.0 0.00 0.00 0.00 32 1021.1
20260502200316 63 25 3.0 3.0 0.00 0.00 0.00 34 1021.1
20260502195814 63 70 3.0 6.0 0.00 0.00 0.00 33 1021.1
20260502195311 63 10 3.0 5.0 0.00 0.00 0.00 33 1021.1
20260502194807 62 325 1.0 1.0 0.00 0.00 0.00 35 1021.5
20260502194304 62 72 1.0 2.0 0.00 0.00 0.00 34 1021.5
20260502193800 62 333 3.0 3.0 0.00 0.00 0.00 35 1021.5
20260502193257 65 359 6.0 7.0 0.00 0.00 0.00 32 1021.5
20260502192752 65 331 3.0 5.0 0.00 0.00 0.00 31 1021.1
20260502192250 64 50 3.0 3.0 0.00 0.00 0.00 30 1021.5
20260502191746 63 351 5.0 6.0 0.00 0.00 0.00 33 1021.5
20260502191244 62 351 3.0 3.0 0.00 0.00 0.00 33 1021.5
20260502190741 61 63 3.0 2.0 0.00 0.00 0.00 34 1021.5
20260502190239 61 342 4.0 5.0 0.00 0.00 0.00 34 1021.5
20260502185739 62 9 3.0 5.0 0.00 0.00 0.00 34 1021.5
20260502185235 62 69 3.0 3.0 0.00 0.00 0.00 33 1021.5
20260502184732 62 10 3.0 3.0 0.00 0.00 0.00 34 1021.5
20260502184228 61 311 0.0 0.0 0.00 0.00 0.00 34 1021.8
20260502183724 61 341 2.0 2.0 0.00 0.00 0.00 37 1021.5
20260502183220 61 0 3.0 5.0 0.00 0.00 0.00 35 1021.5
20260502182716 62 344 2.0 3.0 0.00 0.00 0.00 34 1021.5
20260502182211 62 345 1.0 1.0 0.00 0.00 0.00 33 1021.5
20260502181708 62 294 1.0 1.0 0.00 0.00 0.00 35 1021.5
20260502181203 60 62 3.0 3.0 0.00 0.00 0.00 33 1021.8
20260502180659 60 297 0.0 0.0 0.00 0.00 0.00 35 1021.8
20260502180156 62 328 2.0 2.0 0.00 0.00 0.00 35 1021.8
20260502170114 62 83 2.0 2.0 0.00 0.00 0.00 36 1022.2
20260502164101 62 8 4.0 5.0 0.00 0.00 0.00 38 1021.8
20260502163556 61 326 4.0 3.0 0.00 0.00 0.00 36 1022.2
20260502163054 62 71 4.0 5.0 0.00 0.00 0.00 35 1021.8
20260502162550 61 15 5.0 6.0 0.00 0.00 0.00 32 1022.2
20260502162048 61 9 5.0 7.0 0.00 0.00 0.00 33 1022.2
20260502161544 60 352 2.0 2.0 0.00 0.00 0.00 36 1022.2
20260502161042 60 343 1.0 1.0 0.00 0.00 0.00 38 1021.8
20260502160540 60 119 3.0 5.0 0.00 0.00 0.00 35 1022.2
20260502151953 58 333 3.0 3.0 0.00 0.00 0.00 50 1022.6
20260502151449 58 4 5.0 6.0 0.00 0.00 0.00 51 1022.2
20260502150947 57 2 1.0 2.0 0.00 0.00 0.00 55 1022.2
20260502150444 58 22 7.0 7.0 0.00 0.00 0.00 53 1022.2
20260502130329 45 268 1.0 1.0 0.00 0.00 0.00 83 1021.5
20260502123815 42 348 0.0 0.0 0.00 0.00 0.00 85 1021.5
20260502123312 42 348 0.0 0.0 0.00 0.00 0.00 87 1021.5
20260502122809 41 329 0.0 0.0 0.00 0.00 0.00 89 1021.1
20260502122306 40 329 0.0 0.0 0.00 0.00 0.00 90 1021.1
20260502121803 40 329 0.0 0.0 0.00 0.00 0.00 90 1021.1
20260502121300 40 330 0.0 0.0 0.00 0.00 0.00 91 1021.1
20260502120757 38 315 0.0 0.0 0.00 0.00 0.00 95 1020.8
20260502120254 38 278 0.0 0.0 0.00 0.00 0.00 95 1020.8
20260502115752 37 278 0.0 0.0 0.00 0.00 0.00 95 1020.8
20260502115248 37 278 0.0 0.0 0.00 0.00 0.00 95 1020.8
20260502114744 38 271 0.0 0.0 0.00 0.00 0.00 95 1020.4
20260502114241 38 281 0.0 0.0 0.00 0.00 0.00 95 1020.8
20260502113738 38 283 0.0 0.0 0.00 0.00 0.00 95 1020.8
20260502113236 38 285 0.0 0.0 0.00 0.00 0.00 95 1020.4
20260502112734 38 285 0.0 0.0 0.00 0.00 0.00 95 1020.4
20260502112231 38 285 0.0 0.0 0.00 0.00 0.00 95 1020.4
20260502111728 38 285 0.0 0.0 0.00 0.00 0.00 95 1020.4
20260502111226 38 285 0.0 0.0 0.00 0.00 0.00 95 1020.4
20260502110723 38 285 0.0 0.0 0.00 0.00 0.00 95 1020.4
20260502110221 38 285 0.0 0.0 0.00 0.00 0.00 95 1020.1
20260502105719 38 285 0.0 0.0 0.00 0.00 0.00 95 1020.1
20260502105215 38 285 0.0 0.0 0.00 0.00 0.00 95 1020.1
20260502104712 38 285 0.0 0.0 0.00 0.00 0.00 95 1020.4
20260502104210 38 285 0.0 0.0 0.00 0.00 0.00 94 1020.4
20260502103707 38 285 0.0 0.0 0.00 0.00 0.00 94 1020.1
20260502103205 38 285 0.0 0.0 0.00 0.00 0.00 94 1020.1
20260502102702 38 285 0.0 0.0 0.00 0.00 0.00 94 1020.1
20260502102158 39 285 0.0 0.0 0.00 0.00 0.00 94 1020.1
20260502101656 39 285 0.0 0.0 0.00 0.00 0.00 94 1020.1
20260502101154 39 285 0.0 0.0 0.00 0.00 0.00 94 1019.8
20260502100652 39 285 0.0 0.0 0.00 0.00 0.00 94 1019.8
20260502100150 39 285 0.0 0.0 0.00 0.00 0.00 94 1019.8
20260502091124 39 286 0.0 0.0 0.00 0.00 0.00 94 1019.4
20260502090621 39 286 0.0 0.0 0.00 0.00 0.00 94 1019.8
20260502090119 39 286 0.0 0.0 0.00 0.00 0.00 94 1019.8
20260502071516 39 286 0.0 0.0 0.00 0.00 0.00 93 1019.8
20260502071014 40 286 0.0 0.0 0.00 0.00 0.00 93 1019.8
20260502070512 40 286 0.0 0.0 0.00 0.00 0.00 93 1019.8
20260502070010 40 286 0.0 0.0 0.00 0.00 0.00 92 1019.8
20260502065508 40 286 0.0 0.0 0.00 0.00 0.00 92 1019.4
20260502065006 40 286 0.0 0.0 0.00 0.00 0.00 92 1019.8
20260502064504 40 286 0.0 0.0 0.00 0.00 0.00 92 1019.8
20260502064000 41 286 0.0 0.0 0.00 0.00 0.00 92 1019.4
20260502063459 41 286 0.0 0.0 0.00 0.00 0.00 92 1019.8
20260502062955 41 286 0.0 0.0 0.00 0.00 0.00 92 1019.8
20260502062452 41 288 1.0 1.0 0.00 0.00 0.00 92 1019.8
20260502061951 41 288 0.0 0.0 0.00 0.00 0.00 91 1019.8
20260502061449 41 290 0.0 0.0 0.00 0.00 0.00 91 1019.4
20260502060944 42 289 0.0 0.0 0.00 0.00 0.00 91 1019.4
20260502060440 42 302 0.0 0.0 0.00 0.00 0.00 91 1019.8
20260502055937 42 302 0.0 0.0 0.00 0.00 0.00 92 1019.8
20260502055435 42 301 0.0 0.0 0.00 0.00 0.00 92 1019.8
20260502054929 42 302 0.0 0.0 0.00 0.00 0.00 92 1019.8
20260502054426 42 303 0.0 0.0 0.00 0.00 0.00 92 1019.8
20260502053924 42 303 0.0 0.0 0.00 0.00 0.00 92 1019.8
20260502053421 42 304 0.0 0.0 0.00 0.00 0.00 91 1019.4
20260502052918 42 304 0.0 0.0 0.00 0.00 0.00 91 1019.8
20260502052416 42 303 0.0 0.0 0.00 0.00 0.00 91 1019.8
20260502051914 42 304 0.0 0.0 0.00 0.00 0.00 91 1019.8
20260502051412 42 304 0.0 0.0 0.00 0.00 0.00 90 1019.8
20260502050909 42 304 0.0 0.0 0.00 0.00 0.00 90 1019.8
20260502050405 42 304 0.0 0.0 0.00 0.00 0.00 89 1019.4
20260502045903 42 304 0.0 0.0 0.00 0.00 0.00 90 1019.4
20260502045359 43 304 0.0 0.0 0.00 0.00 0.00 89 1019.4
20260502044856 43 304 0.0 0.0 0.00 0.00 0.00 89 1019.4
20260502044352 43 304 0.0 0.0 0.00 0.00 0.00 89 1019.4
20260502043849 43 304 0.0 0.0 0.00 0.00 0.00 89 1019.4
20260502043347 43 304 0.0 0.0 0.00 0.00 0.00 89 1019.4
20260502042846 43 304 0.0 0.0 0.00 0.00 0.00 89 1019.4
20260502042344 43 304 0.0 0.0 0.00 0.00 0.00 88 1019.4
20260502041841 44 304 0.0 0.0 0.00 0.00 0.00 87 1019.4
20260502041338 44 304 0.0 0.0 0.00 0.00 0.00 87 1019.8
20260502040835 44 304 0.0 0.0 0.00 0.00 0.00 87 1019.4
20260502040332 44 304 0.0 1.0 0.00 0.00 0.00 87 1019.8
20260502035828 44 304 0.0 0.0 0.00 0.00 0.00 86 1019.8
20260502035325 44 304 0.0 0.0 0.00 0.00 0.00 86 1019.8
20260502034822 45 304 0.0 0.0 0.00 0.00 0.00 85 1019.8
20260502034321 45 304 0.0 0.0 0.00 0.00 0.00 84 1019.8
20260502033819 45 304 0.0 0.0 0.00 0.00 0.00 83 1019.8
20260502033316 45 304 0.0 0.0 0.00 0.00 0.00 82 1019.8
20260502032813 45 304 0.0 0.0 0.00 0.00 0.00 82 1019.8
20260502032309 45 304 0.0 0.0 0.00 0.00 0.00 82 1019.8
20260502031807 46 305 0.0 0.0 0.00 0.00 0.00 82 1019.8
20260502031304 46 304 0.0 0.0 0.00 0.00 0.00 81 1019.4
20260502030803 46 304 0.0 0.0 0.00 0.00 0.00 80 1019.8
20260502030300 46 304 1.0 1.0 0.00 0.00 0.00 78 1019.8
20260502025757 46 307 0.0 0.0 0.00 0.00 0.00 79 1019.8
20260502025255 47 307 0.0 0.0 0.00 0.00 0.00 78 1019.8
20260502024753 47 307 0.0 0.0 0.00 0.00 0.00 77 1019.8
20260502024250 47 307 1.0 1.0 0.00 0.00 0.00 76 1019.8
20260502023748 47 307 0.0 0.0 0.00 0.00 0.00 76 1019.4
20260502023246 47 307 0.0 1.0 0.00 0.00 0.00 77 1019.8
20260502022743 47 308 0.0 0.0 0.00 0.00 0.00 78 1019.1
20260502022239 48 308 0.0 0.0 0.00 0.00 0.00 77 1019.4
20260502021736 48 308 0.0 0.0 0.00 0.00 0.00 76 1019.4
20260502021234 48 308 0.0 0.0 0.00 0.00 0.00 76 1019.1
20260502020731 49 308 0.0 0.0 0.00 0.00 0.00 75 1019.1
20260502020228 49 308 0.0 0.0 0.00 0.00 0.00 74 1019.1
20260502015726 50 308 0.0 0.0 0.00 0.00 0.00 72 1019.1
20260502015222 51 308 0.0 0.0 0.00 0.00 0.00 71 1019.1
20260502014720 51 307 0.0 0.0 0.00 0.00 0.00 68 1019.1
20260502014216 51 307 0.0 0.0 0.00 0.00 0.00 68 1019.1
20260502013713 51 307 0.0 0.0 0.00 0.00 0.00 67 1018.8